Flag for Germany Weather past 2 weeks in Wismar, Mecklenburg-Western Pomerania, Germany

Now
72 °F

Overcast.


Feels Like: 76 °F
Forecast: 56 / 72 °F
Wind: 5 mph from East

Location: Schwerin

Current Time: Sep 16, 2014 at 6:22:19 PM

Latest Report: Sep 16, 2014 at 6:00 PM


Visibility: 9 mi

Pressure: 30.07 "Hg

Humidity: 58%

Dew point: 57 °F

Location of WismarLocation

Historic Weather in Wismar — Graph

°F

Wismar temperature yesterday

Maximum temperature yesterday: 76 °F (at 4:00 PM)
Minimum temperature yesterday: 60 °F (at 7:00 AM)
Average temperature yesterday: 66 °F

Past Weeks' High & Low Weather Summary

 TemperatureHumidityPressure
High80 °F (Sep 6, 3:00 PM)100% (Sep 8, 6:00 AM)30.34 "Hg (Sep 8, 6:00 AM)
Low50 °F (Sep 11, 7:00 AM)39% (Sep 6, 3:00 PM)29.85 "Hg (Sep 6, 6:00 PM)
Average62 °F79%30.10 "Hg
* Reported Sep 1 6:00 PM — Sep 16 5:00 PM, Wismar, Weather by CustomWeather, © 2014

Note: Actual official high and low records may vary slightly from our data, if they occured in-between our weather recording intervals... More about our weather records

Advertising

Wismar weather history for previous 24 hours

 ConditionsComfort  
Time TempWeatherWind HumidityBarometerVisibility
5:00 PM
Sep 16
73 °FPartly sunny.6 mph57%30.08 "Hg9 mi
4:00 PM74 °FPartly sunny.6 mph55%30.08 "Hg8 mi
3:00 PM74 °FPassing clouds.5 mph55%30.09 "Hg9 mi
2:00 PM73 °FPassing clouds.6 mph57%30.10 "Hg9 mi
1:00 PM71 °FPartly sunny.6 mph60%30.11 "Hg8 mi
12:00 PM69 °FSunny.3 mph66%30.12 "Hg7 mi
11:00 AM65 °FPassing clouds.5 mph75%30.14 "Hg7 mi
10:00 AM63 °FPartly sunny.5 mph77%30.14 "Hg6 mi
9:00 AM60 °FPartly sunny.5 mph83%30.13 "Hg6 mi
8:00 AM58 °FFog.3 mph90%30.12 "Hg4 mi
7:00 AM58 °FFog.3 mph92%30.12 "Hg4 mi
6:00 AM58 °FPassing clouds.3 mph90%30.12 "Hg5 mi
4:00 AM59 °FPassing clouds.3 mph90%30.12 "Hg5 mi
3:00 AM60 °FPassing clouds.3 mph90%30.13 "Hg6 mi
2:00 AM60 °FOvercast.3 mph90%30.13 "Hg5 mi
1:00 AM61 °FPassing clouds.3 mph91%30.13 "Hg5 mi
12:00 AM61 °FFog.2 mph92%30.14 "Hg4 mi
11:00 PM
Sep 15
63 °FPassing clouds.2 mph89%30.13 "Hg5 mi
10:00 PM64 °FPassing clouds.3 mph87%30.13 "Hg5 mi
9:00 PM66 °FOvercast.3 mph82%30.12 "Hg6 mi
8:00 PM68 °FPassing clouds.3 mph76%30.11 "Hg6 mi
7:00 PM72 °FPartly sunny.5 mph65%30.10 "Hg9 mi
6:00 PM74 °FOvercast.5 mph56%30.09 "Hg9 mi
Weather by CustomWeather, © 2014

See weather overviewHow to use our weather pages